1508749200.63,37621,10.81,72742.8,-3.97,-6.05,-5.93,0,*50
1508749201.89,37622,10.88,72738.3,-3.97,-6.19,-6.05,0,*52
1508749203.14,37623,10.88,72742.3,-3.95,-5.81,-5.61,0,*52
1508749204.4,37624,10.81,72742.0,-3.95,-5.77,-5.61,0,*5C
1508749205.68,37625,10.81,72740.8,-3.97,-5.81,-5.65,0,*52
1508749206.94,37626,10.88,72748.0,-3.97,-5.73,-5.55,0,*5F
1508749208.19,37627,10.81,72754.5,-3.95,-5.61,-5.27,0,*5A
1508749209.43,37628,10.81,72744.5,-3.95,-5.51,-5.27,0,*56
1508749210.65,37629,10.81,72738.0,-3.95,-5.61,-5.47,0,*52
1508749211.88,37630,10.88,72740.0,-3.95,-5.69,-5.51,0,*55
1508749213.14,37631,10.81,72742.5,-3.97,-5.65,-5.55,0,*5E
1508749214.4,37632,10.81,72746.3,-3.95,-5.81,-5.61,0,*52
1508749215.66,37633,10.81,72742.5,-3.97,-5.73,-5.55,0,*5B
1508749216.94,37634,10.81,72748.0,-3.93,-5.81,-5.69,0,*5A
1508749218.17,37635,10.81,72744.8,-3.91,-5.65,-5.55,0,*5C
1508749219.42,37636,10.81,72742.8,-3.93,-5.65,-5.47,0,*5E
1508749220.69,37637,10.81,72736.3,-3.93,-5.81,-5.77,0,*56
1508749221.94,37638,10.81,72738.3,-3.93,-6.13,-5.93,0,*5B
1508749223.22,37639,10.81,72736.3,-3.93,-5.93,-5.69,0,*54
1508749224.5,37640,10.81,72740.3,-3.93,-5.93,-5.77,0,*55
1508749225.78,37641,10.81,72738.5,-3.93,-5.77,-5.65,0,*5D
1508749227.03,37642,10.81,72736.0,-3.95,-5.77,-5.65,0,*58
1508749228.28,37643,10.81,72740.8,-3.95,-6.27,-6.19,0,*57
1508749229.49,37644,10.81,72740.8,-3.95,-6.27,-6.01,0,*59
1508749230.72,37645,10.81,72738.3,-3.95,-5.77,-5.51,0,*58
1508749231.93,37646,10.81,72740.3,-3.95,-5.51,-5.47,0,*58
1508749233.16,37647,10.81,72732.8,-3.97,-6.09,-5.97,0,*58
1508749234.41,37648,10.88,72744.3,-3.95,-5.89,-5.77,0,*50
1508749235.68,37649,10.81,72740.0,-3.93,-5.89,-5.69,0,*58
1508749236.96,37650,10.88,72738.8,-3.93,-5.81,-5.77,0,*57
1508749238.21,37651,10.81,72740.0,-3.93,-6.01,-5.77,0,*5D
1508749239.43,37652,10.81,72744.0,-3.95,-6.05,-5.77,0,*5C
1508749240.68,37653,10.81,72734.0,-3.95,-5.89,-5.65,0,*59
1508749241.93,37654,10.81,72738.8,-3.95,-5.93,-5.69,0,*59
1508749243.19,37655,10.81,72740.0,-3.95,-5.77,-5.65,0,*5E
1508749244.41,37656,10.81,72748.5,-3.95,-5.77,-5.51,0,*5A
1508749245.64,37657,10.81,72734.0,-3.95,-5.69,-5.51,0,*54
1508749246.92,37658,10.81,72732.5,-3.93,-5.69,-5.65,0,*5A
1508749248.2,37659,10.88,72736.5,-3.93,-5.93,-5.77,0,*5D
1508749249.45,37660,10.88,72734.0,-3.91,-5.93,-5.73,0,*51
1508749250.7,37661,10.81,72738.5,-3.93,-5.81,-5.51,0,*51
1508749251.98,37662,10.88,72734.8,-3.93,-5.93,-5.77,0,*55
1508749253.25,37663,10.81,72736.8,-3.93,-5.81,-5.69,0,*58
1508749254.53,37664,10.81,72736.8,-3.93,-5.81,-5.65,0,*53
1508749255.81,37665,10.81,72738.3,-3.93,-5.69,-5.61,0,*50
1508749257.07,37666,10.88,72742.3,-3.93,-5.65,-5.51,0,*5C
1508749258.34,37667,10.88,72734.0,-3.93,-5.89,-5.77,0,*5B
1508749259.59,37668,10.81,72732.8,-3.95,-5.89,-5.69,0,*5D
1508749260.85,37669,10.81,72734.3,-3.93,-5.65,-5.51,0,*53
1508749262.1,37670,10.81,72734.5,-3.93,-5.61,-5.51,0,*5F
1508749263.32,37671,10.88,72740.5,-3.91,-5.61,-5.47,0,*5B
1508749264.54,37672,10.81,72736.0,-3.91,-5.61,-5.47,0,*58
1508749265.82,37673,10.81,72738.3,-3.93,-5.65,-5.61,0,*5B
1508749267.02,37674,10.81,72736.0,-3.91,-5.47,-5.43,0,*5E
1508749268.24,37675,10.81,72736.0,-3.91,-5.73,-5.55,0,*5F
1508749269.49,37676,10.81,72738.0,-3.93,-5.65,-5.51,0,*5D
1508749270.69,37677,10.81,72734.0,-3.91,-5.47,-5.35,0,*5C
1508749271.95,37678,10.81,72728.5,-3.91,-5.77,-5.61,0,*51
1508749273.17,37679,10.81,72750.3,-3.91,-5.73,-5.55,0,*53
1508749274.37,37680,10.81,72726.3,-3.91,-5.47,-5.39,0,*58
1508749275.62,37681,10.81,72724.3,-3.91,-5.85,-5.77,0,*5D
1508749276.86,37682,10.88,72726.5,-3.91,-6.27,-6.23,0,*57
1508749278.09,37683,10.81,72738.5,-3.93,-6.13,-6.01,0,*53
1508749279.34,37684,10.81,72746.3,-3.91,-5.85,-5.73,0,*5C
1508749280.59,37685,10.81,72736.0,-3.91,-5.85,-5.73,0,*5D
1508749281.82,37686,10.81,72732.3,-3.93,-5.51,-5.51,0,*55
1508749283.02,37687,10.81,72732.8,-3.91,-5.55,-5.47,0,*55
1508749284.24,37688,10.88,72740.0,-3.91,-5.61,-5.47,0,*5D
1508749285.47,37689,10.81,72732.3,-3.91,-5.61,-5.55,0,*5F
1508749286.75,37690,10.81,72726.0,-3.93,-5.69,-5.61,0,*5A
1508749288.03,37691,10.81,72728.0,-3.93,-5.93,-5.81,0,*50
1508749289.28,37692,10.81,72728.3,-3.91,-5.85,-5.73,0,*5B
1508749290.53,37693,10.88,72730.5,-3.91,-5.89,-5.85,0,*5F
1508749291.75,37694,10.81,72732.3,-3.93,-6.05,-6.01,0,*52
1508749292.98,37695,10.81,72730.3,-3.91,-6.01,-5.93,0,*5D
1508749294.23,37696,10.81,72722.5,-3.93,-5.69,-5.51,0,*5F
1508749295.48,37697,10.81,72724.3,-3.93,-6.31,-6.19,0,*5F
1508749296.71,37698,10.81,72732.0,-3.93,-6.13,-6.01,0,*59
1508749297.9,37699,10.81,72760.8,-3.91,-6.13,-6.13,0,*59
1508749299.18,37700,10.88,72754.8,-3.93,-5.93,-5.77,0,*50
1508749300.45,37701,10.81,72716.3,-3.93,-6.27,-6.19,0,*56
1508749301.68,37702,10.81,72708.5,-3.93,-6.43,-6.31,0,*5D
1508749302.88,37703,10.81,72684.8,-3.95,-6.47,-6.39,0,*56
1508749304.08,37704,10.81,72718.5,-3.95,-6.39,-6.31,0,*50
1508749305.33,37705,10.81,72728.8,-3.95,-6.27,-6.19,0,*54
1508749306.56,37706,10.81,72726.8,-3.95,-6.31,-6.27,0,*5D
1508749307.82,37707,10.81,72722.0,-3.97,-6.31,-6.19,0,*53
1508749309.04,37708,10.81,72734.5,-3.95,-6.01,-5.81,0,*5F
1508749310.27,37709,10.88,72730.5,-3.95,-6.31,-6.19,0,*5F
1508749311.53,37710,10.81,72722.5,-3.97,-6.19,-5.97,0,*5A
1508749312.78,37711,10.88,72726.0,-3.97,-6.05,-5.93,0,*52
1508749314.01,37712,10.81,72730.0,-3.97,-6.09,-6.09,0,*5D
1508749315.22,37713,10.81,72746.0,-3.95,-6.09,-5.97,0,*5A
1508749316.47,37714,10.81,72726.0,-3.95,-5.93,-5.69,0,*5C
1508749317.71,37715,10.81,72718.5,-3.97,-6.51,-6.31,0,*5C
1508749318.99,37716,10.81,72730.3,-3.97,-6.23,-5.93,0,*51
1508749320.28,37717,10.81,72742.0,-3.97,-5.81,-5.65,0,*52
1508749321.53,37718,10.81,72736.3,-3.95,-5.77,-5.61,0,*52
1508749322.81,37719,10.88,72734.0,-3.97,-5.73,-5.65,0,*51
1508749324.08,37720,10.81,72732.0,-3.97,-5.73,-5.65,0,*5B
1508749325.37,37721,10.81,72730.8,-3.97,-5.81,-5.69,0,*5B
1508749326.63,37722,10.88,72746.3,-3.97,-5.69,-5.55,0,*51
1508749327.88,37723,10.88,72744.8,-3.95,-5.93,-5.77,0,*57
1508749329.14,37724,10.81,72736.3,-3.95,-5.77,-5.65,0,*59
1508749330.39,37725,10.81,72722.3,-3.95,-5.89,-5.65,0,*59
1508749331.67,37726,10.81,72710.5,-3.97,-5.93,-5.73,0,*54
1508749332.9,37727,10.81,72734.8,-3.95,-6.05,-5.89,0,*5E
1508749334.19,37728,10.81,72724.8,-3.97,-5.93,-5.85,0,*53
1508749335.41,37729,10.81,72728.8,-3.95,-6.01,-5.69,0,*5A
1508749336.64,37730,10.81,72740.0,-3.95,-5.97,-5.93,0,*5B
1508749337.9,37731,10.81,72732.5,-3.97,-5.73,-5.55,0,*58
1508749339.15,37732,10.81,72734.3,-3.95,-5.77,-5.61,0,*5A
1508749340.39,37733,10.88,72742.3,-3.97,-5.55,-5.39,0,*54
1508749341.62,37734,10.81,72734.5,-3.95,-5.65,-5.51,0,*5C
1508749342.87,37735,10.81,72734.5,-3.95,-5.81,-5.65,0,*50
1508749344.13,37736,10.88,72736.5,-3.95,-5.89,-5.61,0,*5F
1508749345.35,37737,10.88,72732.8,-3.95,-5.61,-5.47,0,*5C
1508749346.58,37738,10.81,72732.3,-3.95,-5.65,-5.47,0,*57
1508749347.81,37739,10.88,72740.3,-3.95,-5.65,-5.47,0,*56
1508749349.03,37740,10.81,72740.5,-3.95,-5.65,-5.39,0,*51
1508749350.26,37741,10.88,72746.5,-3.93,-5.51,-5.39,0,*51
1508749351.51,37742,10.81,72742.8,-3.93,-5.61,-5.39,0,*51
1508749352.75,37743,10.88,72744.8,-3.93,-5.61,-5.47,0,*59
1508749354.0,37744,10.81,72738.5,-3.93,-5.65,-5.47,0,*5A
1508749355.28,37745,10.88,72734.8,-3.93,-5.77,-5.65,0,*58
1508749356.48,37746,10.81,72732.0,-3.91,-5.47,-5.43,0,*5E
1508749357.71,37747,10.88,72724.3,-3.91,-5.47,-5.23,0,*59
1508749358.96,37748,10.88,72726.8,-3.89,-5.73,-5.55,0,*59
1508749360.25,37749,10.88,72742.3,-3.89,-5.85,-5.61,0,*56
1508749361.51,37750,10.81,72726.8,-3.91,-5.85,-5.65,0,*53
1508749362.75,37751,10.81,72732.8,-3.91,-5.77,-5.65,0,*5F
1508749364.0,37752,10.88,72740.8,-3.93,-5.65,-5.47,0,*5D
1508749365.21,37753,10.88,72748.0,-3.91,-5.55,-5.43,0,*59
1508749366.46,37754,10.81,72748.8,-3.91,-5.77,-5.61,0,*5E
1508749367.68,37755,10.88,72726.0,-3.87,-5.73,-5.55,0,*5B
1508749368.94,37756,10.88,72718.0,-3.89,-5.97,-5.85,0,*51
1508749370.19,37757,10.88,72736.3,-3.89,-6.23,-5.97,0,*5F
1508749371.47,37758,10.81,72732.5,-3.89,-5.85,-5.73,0,*55
1508749372.72,37759,10.81,72722.5,-3.91,-5.89,-5.73,0,*51
1508749373.97,37760,10.81,72728.0,-3.93,-6.05,-5.93,0,*50
1508749375.16,37761,10.81,72728.8,-3.91,-6.13,-6.01,0,*5C
1508749376.41,37762,10.81,72736.5,-3.93,-6.05,-5.81,0,*51
1508749377.68,37763,10.81,72738.5,-3.93,-5.89,-5.65,0,*5D
1508749378.96,37764,10.88,72738.3,-3.93,-5.89,-5.69,0,*56
1508749380.22,37765,10.88,72740.8,-3.93,-5.65,-5.51,0,*5E
1508749381.46,37766,10.88,72742.0,-3.93,-5.61,-5.39,0,*57
1508749382.69,37767,10.81,72738.8,-3.91,-5.77,-5.55,0,*59
1508749383.93,37768,10.88,72740.3,-3.91,-5.81,-5.55,0,*5F
1508749385.2,37769,10.88,72746.3,-3.93,-5.77,-5.65,0,*56
1508749386.48,37770,10.88,72750.0,-3.93,-5.89,-5.69,0,*53
1508749387.76,37771,10.88,72746.3,-3.93,-5.81,-5.61,0,*52
1508749389.01,37772,10.88,72744.3,-3.93,-5.69,-5.47,0,*53
1508749390.26,37773,10.88,72740.0,-3.91,-5.77,-5.61,0,*5B
1508749391.51,37774,10.88,72736.0,-3.93,-5.61,-5.51,0,*5A
1508749392.79,37775,10.88,72732.3,-3.89,-5.89,-5.73,0,*56
1508749394.01,37776,10.88,72732.3,-3.91,-5.77,-5.47,0,*5A
1508749395.24,37777,10.88,72734.0,-3.93,-5.51,-5.39,0,*54
1508749396.46,37778,10.81,72730.8,-3.91,-5.61,-5.43,0,*57
1508749397.68,37779,10.81,72730.3,-3.91,-5.61,-5.43,0,*56
1508749398.96,37780,10.88,72736.0,-3.93,-5.89,-5.65,0,*50
1508749400.16,37781,10.88,72734.8,-3.91,-5.55,-5.43,0,*56
1508749401.41,37782,10.81,72728.5,-3.89,-5.61,-5.43,0,*5B
1508749402.66,37783,10.81,72732.3,-3.91,-5.77,-5.61,0,*54
1508749403.88,37784,10.88,72736.3,-3.91,-5.61,-5.43,0,*54
1508749405.1,37785,10.88,72736.8,-3.91,-5.61,-5.43,0,*55
1508749406.34,37786,10.88,72734.0,-3.89,-5.55,-5.43,0,*58
1508749407.59,37787,10.88,72736.8,-3.89,-5.97,-5.85,0,*5D
1508749408.84,37788,10.88,72734.0,-3.89,-5.61,-5.47,0,*55
1508749410.08,37789,10.88,72732.0,-3.89,-5.55,-5.35,0,*56
1508749411.33,37790,10.81,72732.0,-3.89,-5.65,-5.43,0,*5C
1508749412.58,37791,10.81,72734.5,-3.89,-5.73,-5.55,0,*5D
1508749413.83,37792,10.88,72732.3,-3.89,-5.61,-5.47,0,*5E
1508749415.08,37793,10.81,72728.3,-3.89,-5.61,-5.43,0,*5B
1508749416.36,37794,10.88,72732.3,-3.89,-5.85,-5.73,0,*55
1508749417.59,37795,10.81,72724.8,-3.87,-5.81,-5.55,0,*5A
1508749418.85,37796,10.81,72728.5,-3.87,-5.85,-5.61,0,*5A
1508749420.1,37797,10.88,72730.3,-3.89,-5.73,-5.47,0,*58
1508749421.32,37798,10.81,72722.5,-3.87,-5.69,-5.43,0,*56
1508749422.54,37799,10.88,72738.3,-3.87,-5.69,-5.43,0,*57
1508749423.79,37800,10.88,72728.8,-3.89,-5.77,-5.47,0,*5D
1508749425.02,37801,10.88,72728.5,-3.87,-5.69,-5.51,0,*5A
1508749426.28,37802,10.88,72738.3,-3.89,-5.69,-5.51,0,*57
1508749427.5,37803,10.88,72732.3,-3.87,-5.61,-5.43,0,*53
1508749428.7,37804,10.88,72736.5,-3.87,-5.55,-5.39,0,*5E
1508749429.92,37805,10.88,72738.5,-3.87,-5.61,-5.39,0,*58
1508749431.15,37806,10.88,72734.0,-3.87,-5.73,-5.55,0,*52
1508749432.34,37807,10.81,72722.0,-3.87,-5.51,-5.43,0,*54
1508749433.57,37808,10.88,72724.3,-3.87,-5.73,-5.51,0,*58
1508749434.78,37809,10.88,72732.8,-3.87,-5.61,-5.43,0,*59
1508749436.01,37810,10.81,72730.5,-3.87,-5.69,-5.51,0,*5A
1508749437.23,37811,10.81,72730.8,-3.87,-5.61,-5.43,0,*50
1508749438.45,37812,10.88,72742.0,-3.87,-5.73,-5.51,0,*53
1508749439.67,37813,10.81,72728.5,-3.83,-5.65,-5.47,0,*56
1508749440.9,37814,10.81,72720.3,-3.83,-6.01,-5.77,0,*53
1508749442.15,37815,10.88,72732.8,-3.81,-5.77,-5.55,0,*52
1508749443.4,37816,10.88,72738.3,-3.87,-5.81,-5.69,0,*51
1508749444.6,37817,10.88,72728.3,-3.87,-5.51,-5.39,0,*58
1508749445.83,37818,10.88,72726.0,-3.87,-5.97,-5.85,0,*5A
1508749447.06,37819,10.88,72734.3,-3.83,-5.77,-5.55,0,*5C
1508749448.28,37820,10.88,72726.3,-3.83,-5.69,-5.47,0,*5A
1508749449.51,37821,10.88,72738.8,-3.83,-5.65,-5.47,0,*57
1508749450.74,37822,10.81,72720.5,-3.83,-5.39,-5.27,0,*5B
1508749451.96,37823,10.88,72728.0,-3.83,-5.39,-5.27,0,*5A
1508749453.22,37824,10.81,72728.5,-3.87,-5.81,-5.61,0,*58
1508749454.45,37825,10.88,72724.5,-3.87,-5.69,-5.55,0,*58
1508749455.7,37826,10.88,72728.5,-3.89,-6.01,-5.77,0,*58
1508749456.92,37827,10.81,72728.0,-3.87,-5.69,-5.43,0,*5D
1508749458.15,37828,10.88,72742.3,-3.83,-5.81,-5.55,0,*57
1508749459.38,37829,10.88,72740.3,-3.83,-5.65,-5.39,0,*56
1508749460.6,37830,10.88,72742.8,-3.87,-5.73,-5.55,0,*57
1508749461.8,37831,10.88,72740.8,-3.87,-5.55,-5.43,0,*55
1508749463.01,37832,10.81,72732.8,-3.87,-5.55,-5.51,0,*55
1508749464.29,37833,10.81,72738.3,-3.89,-5.77,-5.61,0,*59
1508749465.52,37834,10.81,72734.8,-3.87,-5.69,-5.55,0,*58
1508749466.75,37835,10.81,72732.3,-3.83,-5.69,-5.47,0,*5E
1508749467.95,37836,10.88,72738.0,-3.83,-5.55,-5.39,0,*5B
1508749469.18,37837,10.81,72734.0,-3.83,-5.69,-5.51,0,*5B
1508749470.38,37838,10.88,72732.0,-3.83,-5.55,-5.39,0,*55
1508749471.61,37839,10.81,72728.3,-3.81,-5.51,-5.47,0,*5B
1508749472.84,37840,10.88,72732.5,-3.81,-5.55,-5.47,0,*51
1508749474.06,37841,10.81,72734.8,-3.83,-5.65,-5.39,0,*58
1508749475.27,37842,10.81,72742.3,-3.83,-5.55,-5.39,0,*58
1508749476.49,37843,10.88,72734.0,-3.81,-5.51,-5.39,0,*5F
1508749477.74,37844,10.81,72734.3,-3.83,-5.77,-5.65,0,*57
1508749479.02,37845,10.81,72734.8,-3.81,-5.77,-5.65,0,*54
1508749480.22,37846,10.88,72738.0,-3.83,-5.55,-5.47,0,*55
1508749481.45,37847,10.88,72742.5,-3.83,-5.69,-5.51,0,*5C
1508749482.67,37848,10.88,72736.3,-3.83,-5.69,-5.47,0,*54
1508749483.93,37849,10.88,72734.5,-3.81,-5.81,-5.55,0,*52
1508749485.18,37850,10.88,72730.8,-3.81,-5.69,-5.39,0,*56
1508749486.46,37851,10.81,72732.5,-3.81,-5.89,-5.65,0,*50
1508749487.71,37852,10.88,72732.8,-3.81,-5.69,-5.47,0,*5D
1508749488.96,37853,10.88,72734.5,-3.81,-5.65,-5.39,0,*59
1508749490.19,37854,10.88,72742.8,-3.81,-5.51,-5.39,0,*59
1508749491.42,37855,10.81,72732.8,-3.81,-5.55,-5.39,0,*5C
1508749492.64,37856,10.81,72726.3,-3.83,-5.69,-5.47,0,*5B
1508749493.9,37857,10.88,72742.8,-3.81,-5.39,-5.23,0,*5F
1508749495.15,37858,10.88,72730.3,-3.81,-5.39,-5.27,0,*54
1508749496.41,37859,10.81,72726.8,-3.79,-5.31,-5.23,0,*5E
1508749497.64,37860,10.88,72728.8,-3.79,-5.77,-5.51,0,*53
1508749498.88,37861,10.88,72728.3,-3.79,-5.85,-5.73,0,*5F
1508749500.1,37862,10.88,72734.3,-3.79,-5.61,-5.43,0,*55
1508749501.3,37863,10.88,72734.3,-3.79,-5.43,-5.35,0,*55
1508749502.49,37864,10.88,72736.3,-3.79,-5.43,-5.35,0,*52
1508749503.71,37865,10.88,72738.5,-3.77,-5.35,-5.35,0,*5C
1508749504.96,37866,10.81,72738.5,-3.79,-5.65,-5.61,0,*55
1508749506.21,37867,10.88,72734.0,-3.79,-5.85,-5.73,0,*59
1508749507.48,37868,10.88,72732.8,-3.77,-5.77,-5.73,0,*55
1508749508.67,37869,10.88,72734.5,-3.79,-5.47,-5.35,0,*5B
1508749509.87,37870,10.81,72732.0,-3.79,-5.43,-5.35,0,*57
1508749511.06,37871,10.88,72740.5,-3.79,-5.43,-5.43,0,*57
1508749512.26,37872,10.81,72734.5,-3.79,-6.09,-5.97,0,*50
1508749513.52,37873,10.81,72732.3,-3.77,-5.73,-5.65,0,*5C
1508749514.74,37874,10.88,72740.8,-3.79,-5.61,-5.47,0,*56
1508749515.99,37875,10.88,72734.5,-3.79,-5.85,-5.65,0,*5D
1508749517.22,37876,10.88,72736.0,-3.79,-5.97,-5.85,0,*53
1508749518.44,37877,10.81,72744.3,-3.79,-5.73,-5.51,0,*51
1508749519.66,37878,10.88,72736.0,-3.79,-5.61,-5.51,0,*5D
1508749520.88,37879,10.88,72746.0,-3.79,-5.73,-5.47,0,*58
1508749522.13,37880,10.88,72740.0,-3.77,-5.77,-5.51,0,*53
1508749523.35,37881,10.88,72726.0,-3.79,-5.61,-5.43,0,*58
1508749524.57,37882,10.88,72724.8,-3.79,-5.73,-5.51,0,*5B
1508749525.82,37883,10.81,72724.5,-3.79,-5.85,-5.65,0,*54
1508749527.04,37884,10.81,72734.3,-3.79,-5.73,-5.47,0,*5A
1508749528.28,37885,10.88,72730.0,-3.77,-5.61,-5.43,0,*52
1508749529.53,37886,10.81,72718.5,-3.79,-5.89,-5.61,0,*59
1508749530.81,37887,10.88,72724.5,-3.77,-5.85,-5.73,0,*59
1508749532.06,37888,10.88,72728.0,-3.79,-5.77,-5.61,0,*56
1508749533.3,37889,10.88,72732.5,-3.77,-5.73,-5.51,0,*5E
1508749534.53,37890,10.88,72732.5,-3.79,-5.77,-5.51,0,*5C
1508749535.8,37891,10.81,72730.8,-3.77,-5.89,-5.73,0,*52
1508749537.02,37892,10.88,72728.0,-3.79,-5.65,-5.51,0,*5D
1508749538.25,37893,10.88,72728.8,-3.79,-5.65,-5.51,0,*5C
1508749539.45,37894,10.88,72738.5,-3.79,-5.51,-5.43,0,*5F
1508749540.67,37895,10.88,72734.3,-3.77,-5.47,-5.43,0,*57
1508749541.94,37896,10.88,72736.3,-3.77,-5.73,-5.65,0,*57
1508749543.16,37897,10.88,72738.5,-3.75,-5.47,-5.31,0,*52
1508749544.41,37898,10.88,72742.8,-3.77,-5.43,-5.31,0,*5B
1508749545.63,37899,10.88,72738.5,-3.77,-6.13,-5.97,0,*50
1508749546.88,37900,10.88,72730.3,-3.75,-5.69,-5.61,0,*54
1508749548.1,37901,10.88,72734.0,-3.75,-5.73,-5.47,0,*5A
1508749549.34,37902,10.81,72730.5,-3.77,-5.61,-5.35,0,*5D
1508749550.56,37903,10.81,72730.5,-3.77,-5.47,-5.35,0,*58
1508749551.81,37904,10.81,72734.3,-3.77,-5.73,-5.47,0,*5D
1508749553.08,37905,10.88,72736.5,-3.77,-5.65,-5.61,0,*5F
1508749554.35,37906,10.88,72732.3,-3.77,-5.73,-5.61,0,*5B
1508749555.57,37907,10.88,72724.5,-3.75,-5.61,-5.43,0,*5B
1508749556.78,37908,10.88,72738.0,-3.75,-5.55,-5.39,0,*5E
1508749558.0,37909,10.88,72738.5,-3.75,-5.43,-5.31,0,*50
1508749559.22,37910,10.88,72728.5,-3.75,-5.61,-5.55,0,*5A
1508749560.48,37911,10.81,72714.0,-3.75,-5.85,-5.69,0,*5E
1508749561.72,37912,10.88,72720.5,-3.77,-5.97,-5.77,0,*53
1508749563.0,37913,10.88,72726.0,-3.77,-5.85,-5.85,0,*5C
1508749564.23,37914,10.88,72734.3,-3.75,-5.73,-5.55,0,*5D
1508749565.46,37915,10.88,72732.8,-3.75,-5.69,-5.55,0,*57
1508749566.71,37916,10.88,72728.0,-3.75,-5.85,-5.81,0,*5F
1508749567.96,37917,10.88,72738.5,-3.75,-5.81,-5.69,0,*5C
1508749569.21,37918,10.88,72748.8,-3.75,-5.93,-5.69,0,*50
1508749570.43,37919,10.88,72730.8,-3.75,-6.23,-6.05,0,*50
1508749571.65,37920,10.88,72726.8,-3.75,-5.97,-5.73,0,*54
1508749572.88,37921,10.88,72718.8,-3.75,-5.61,-5.55,0,*58
1508749574.08,37922,10.88,72712.5,-3.75,-6.09,-5.97,0,*58
1508749575.33,37923,10.88,72726.5,-3.75,-6.19,-5.93,0,*5C
1508749576.55,37924,10.88,72740.0,-3.75,-5.69,-5.47,0,*56
1508749577.77,37925,10.88,72736.3,-3.75,-5.69,-5.47,0,*57
1508749579.05,37926,10.88,72734.0,-3.77,-5.77,-5.65,0,*59
1508749580.32,37927,10.88,72732.3,-3.77,-5.77,-5.61,0,*5C
1508749581.54,37928,10.88,72734.5,-3.77,-6.09,-6.01,0,*5C
1508749582.8,37929,10.88,72738.3,-3.77,-5.97,-5.85,0,*56
1508749584.05,37930,10.88,72736.3,-3.77,-5.77,-5.51,0,*59
1508749585.26,37931,10.81,72732.3,-3.77,-6.13,-6.09,0,*57
1508749586.51,37932,10.88,72740.3,-3.77,-5.97,-5.85,0,*5C
1508749587.71,37933,10.88,72738.8,-3.79,-6.09,-5.97,0,*54
1508749588.99,37934,10.88,72738.0,-3.77,-5.65,-5.61,0,*5D
1508749590.24,37935,10.88,72742.3,-3.77,-5.65,-5.47,0,*58
1508749591.46,37936,10.88,72732.0,-3.77,-5.47,-5.35,0,*5E
1508749592.68,37937,10.88,72730.0,-3.77,-5.47,-5.43,0,*5E
1508749593.95,37938,10.88,72724.8,-3.77,-5.73,-5.61,0,*56
1508749595.22,37939,10.88,72724.3,-3.77,-5.77,-5.65,0,*57
1508749596.45,37940,10.81,72724.5,-3.75,-5.97,-5.93,0,*5C
1508749597.7,37941,10.88,72738.8,-3.75,-5.81,-5.61,0,*57
1508749598.95,37942,10.88,72738.8,-3.77,-5.65,-5.47,0,*58
1508749600.22,37943,10.88,72732.3,-3.77,-5.65,-5.61,0,*5D
1508749601.42,37944,10.88,72728.8,-3.75,-6.09,-5.97,0,*58
1508749602.69,37945,10.88,72724.5,-3.77,-5.77,-5.65,0,*5C
1508749603.97,37946,10.88,72730.5,-3.77,-5.89,-5.85,0,*50
1508749605.2,37947,10.88,72736.3,-3.79,-6.01,-5.89,0,*50
1508749606.45,37948,10.88,72730.3,-3.77,-5.97,-5.85,0,*51
1508749607.72,37949,10.88,72730.0,-3.77,-5.89,-5.85,0,*5F
1508749608.99,37950,10.81,72726.8,-3.77,-5.77,-5.73,0,*5F
1508749610.21,37951,10.88,72738.5,-3.79,-5.97,-5.73,0,*5E
1508749611.46,37952,10.81,72726.8,-3.77,-6.31,-6.23,0,*5A
1508749612.71,37953,10.88,72720.0,-3.77,-6.09,-5.89,0,*53
1508749613.93,37954,10.81,72724.8,-3.77,-6.09,-5.97,0,*5B
1508749615.16,37955,10.88,72732.3,-3.79,-6.01,-5.89,0,*53
1508749616.41,37956,10.88,72724.3,-3.77,-5.97,-5.85,0,*5E
1508749617.65,37957,10.81,72714.0,-3.79,-5.89,-5.73,0,*57
1508749618.87,37958,10.88,72722.8,-3.79,-6.27,-6.13,0,*5A
1508749620.09,37959,10.88,72728.3,-3.79,-6.31,-6.23,0,*5F
1508749621.28,37960,10.88,72736.5,-3.79,-5.97,-5.97,0,*56
1508749622.53,37961,10.88,72740.3,-3.79,-5.73,-5.61,0,*54
1508749623.76,37962,10.88,72734.3,-3.79,-6.13,-5.89,0,*54
1508749624.98,37963,10.88,72724.5,-3.79,-6.09,-5.89,0,*5E
1508749626.21,37964,10.88,72734.3,-3.79,-6.09,-5.85,0,*55
1508749627.49,37965,10.88,72724.5,-3.77,-5.85,-5.77,0,*50
1508749628.73,37966,10.88,72732.3,-3.79,-5.89,-5.73,0,*55
1508749629.98,37967,10.88,72728.0,-3.79,-5.77,-5.65,0,*52
1508749631.17,37968,10.88,72732.5,-3.79,-6.13,-5.97,0,*51
1508749632.39,37969,10.81,72732.5,-3.79,-5.97,-5.73,0,*55
1508749633.64,37970,10.88,72730.3,-3.79,-5.73,-5.61,0,*54
1508749634.86,37971,10.88,72736.3,-3.79,-5.73,-5.51,0,*56
1508749636.08,37972,10.88,72730.3,-3.79,-5.73,-5.51,0,*55
1508749637.35,37973,10.88,72728.8,-3.77,-5.77,-5.65,0,*59
1508749638.6,37974,10.88,72728.5,-3.77,-5.61,-5.47,0,*59
1508749639.87,37975,10.88,72742.3,-3.77,-5.77,-5.65,0,*5F
1508749641.09,37976,10.81,72750.0,-3.77,-5.51,-5.43,0,*5C
1508749642.32,37977,10.88,72734.8,-3.79,-6.09,-5.89,0,*5B
1508749643.56,37978,10.88,72730.5,-3.79,-5.89,-5.77,0,*5E
1508749644.82,37979,10.88,72726.3,-3.77,-5.97,-5.85,0,*53
1508749646.03,37980,10.88,72718.0,-3.79,-6.23,-6.01,0,*58
1508749647.25,37981,10.81,72732.0,-3.79,-5.97,-5.77,0,*57
1508749648.5,37982,10.88,72728.8,-3.77,-5.97,-5.85,0,*57
1508749649.75,37983,10.88,72728.8,-3.79,-5.73,-5.61,0,*58
1508749651.0,37984,10.88,72730.8,-3.79,-5.73,-5.61,0,*5F
1508749652.27,37985,10.88,72730.5,-3.77,-5.89,-5.77,0,*52
1508749653.52,37986,10.88,72730.0,-3.79,-5.85,-5.73,0,*57
1508749654.78,37987,10.88,72740.5,-3.77,-5.89,-5.73,0,*54
1508749656.04,37988,10.88,72740.0,-3.79,-5.65,-5.61,0,*54
1508749657.28,37989,10.88,72734.5,-3.77,-5.61,-5.43,0,*5F
1508749658.53,37990,10.88,72724.3,-3.79,-5.65,-5.61,0,*5D
1508749659.78,37991,10.81,72726.5,-3.77,-6.01,-5.89,0,*55
1508749661.03,37992,10.88,72728.0,-3.79,-5.89,-5.73,0,*5E
1508749662.27,37993,10.88,72730.8,-3.77,-5.73,-5.51,0,*54
1508749663.52,37994,10.88,72732.5,-3.77,-5.61,-5.35,0,*52
1508749664.76,37995,10.88,72734.3,-3.77,-5.61,-5.47,0,*56
1508749665.98,37996,10.88,72720.8,-3.77,-5.47,-5.35,0,*54
1508749667.25,37997,10.88,72720.3,-3.77,-5.77,-5.73,0,*54
1508749668.47,37998,10.88,72734.8,-3.75,-5.73,-5.47,0,*5A
1508749669.72,37999,10.88,72730.5,-3.75,-5.31,-5.27,0,*5B
1508749670.95,38000,10.88,72720.8,-3.75,-5.39,-5.27,0,*55
1508749672.18,38001,10.88,72736.0,-3.75,-5.39,-5.31,0,*53
1508749673.41,38002,10.88,72720.8,-3.75,-5.47,-5.31,0,*59
1508749674.63,38003,10.88,72734.5,-3.75,-5.69,-5.47,0,*55
1508749675.85,38004,10.88,72732.0,-3.75,-5.61,-5.43,0,*5E
1508749677.1,38005,10.88,72728.5,-3.75,-5.31,-5.19,0,*55
1508749678.32,38006,10.88,72736.8,-3.75,-5.61,-5.47,0,*58
1508749679.55,38007,10.88,72732.3,-3.75,-5.43,-5.31,0,*58
1508749680.8,38008,10.88,72724.3,-3.73,-5.69,-5.47,0,*58
1508749682.08,38009,10.88,72728.3,-3.73,-5.85,-5.69,0,*57
1508749683.31,38010,10.88,72726.8,-3.75,-5.43,-5.27,0,*59
1508749684.53,38011,10.88,72728.3,-3.75,-5.69,-5.47,0,*56
1508749685.76,38012,10.88,72730.0,-3.75,-5.47,-5.31,0,*58
1508749686.98,38013,10.88,72724.3,-3.75,-5.61,-5.43,0,*58
1508749688.21,38014,10.88,72738.5,-3.75,-5.69,-5.55,0,*50
1508749689.42,38015,10.88,72730.5,-3.75,-5.73,-5.43,0,*5D
1508749690.65,38016,10.88,72732.5,-3.75,-5.69,-5.55,0,*52
1508749691.87,38017,10.88,72724.5,-3.77,-5.43,-5.35,0,*5F
1508749693.09,38018,10.88,72730.3,-3.77,-5.51,-5.43,0,*52
1508749694.34,38019,10.88,72736.0,-3.77,-5.61,-5.51,0,*53
1508749695.61,38020,10.88,72734.0,-3.77,-5.65,-5.61,0,*5E
1508749696.82,38021,10.88,72728.5,-3.75,-5.55,-5.43,0,*5E
1508749698.04,38022,10.88,72726.3,-3.75,-5.43,-5.31,0,*5F
1508749699.24,38023,10.88,72732.3,-3.75,-5.55,-5.39,0,*51
1508749700.47,38024,10.88,72734.0,-3.75,-5.69,-5.55,0,*53
1508749701.7,38025,10.88,72734.0,-3.75,-5.47,-5.31,0,*5C
1508749702.95,38026,10.88,72730.3,-3.75,-5.81,-5.69,0,*58
1508749704.2,38027,10.88,72728.0,-3.73,-5.61,-5.47,0,*5D
1508749705.45,38028,10.88,72736.8,-3.73,-5.73,-5.55,0,*52
1508749706.65,38029,10.88,72732.5,-3.75,-5.43,-5.39,0,*5C
1508749707.87,38030,10.88,72742.0,-3.75,-5.39,-5.31,0,*51
1508749709.13,38031,10.88,72726.3,-3.73,-5.47,-5.31,0,*5F
1508749710.4,38032,10.88,72730.8,-3.77,-5.85,-5.73,0,*50
1508749711.62,38033,10.88,72732.5,-3.75,-5.61,-5.47,0,*5E
1508749712.83,38034,10.88,72728.3,-3.75,-5.55,-5.43,0,*5A